| time (UTC) | temp C | wind direction | speed KPH | gust KPH | rain 1hr cm | rain 24hr cm | rain mn cm | humidity % | barometer mb |
| 20260509010704 | 18 | 251 | 6.4 | 19.3 | 0.00 | 0.00 | 0.00 | 51 | 1021.4 |
| 20260509000704 | 18 | 234 | 8.0 | 19.3 | 0.00 | 0.00 | 0.00 | 52 | 1021.5 |
| 20260509000204 | 18 | 236 | 4.8 | 22.5 | 0.00 | 0.00 | 0.00 | 52 | 1021.5 |
| 20260508233704 | 17 | 280 | 6.4 | 14.5 | 0.00 | 0.00 | 0.00 | 52 | 1021.4 |
| 20260508230704 | 18 | 234 | 8.0 | 22.5 | 0.00 | 0.00 | 0.00 | 51 | 1021.6 |
| 20260508230204 | 18 | 254 | 4.8 | 22.5 | 0.00 | 0.00 | 0.00 | 51 | 1021.5 |
| 20260508223705 | 18 | 183 | 8.0 | 19.3 | 0.00 | 0.00 | 0.00 | 52 | 1021.6 |
| 20260508223204 | 18 | 229 | 8.0 | 20.9 | 0.00 | 0.00 | 0.00 | 51 | 1021.6 |
| 20260508220203 | 18 | 267 | 11.3 | 32.2 | 0.00 | 0.00 | 0.00 | 51 | 1021.5 |
| 20260508213703 | 16 | 284 | 9.7 | 22.5 | 0.00 | 0.00 | 0.00 | 55 | 1021.5 |
| 20260508213205 | 16 | 282 | 11.3 | 27.4 | 0.00 | 0.00 | 0.00 | 55 | 1021.5 |
| 20260508210204 | 16 | 234 | 4.8 | 27.4 | 0.00 | 0.00 | 0.00 | 56 | 1021.4 |
| 20260508203704 | 15 | 276 | 8.0 | 14.5 | 0.00 | 0.00 | 0.00 | 57 | 1021.3 |
| 20260508203204 | 15 | 266 | 6.4 | 22.5 | 0.00 | 0.00 | 0.00 | 58 | 1021.4 |
| 20260508200703 | 14 | 194 | 8.0 | 22.5 | 0.00 | 0.00 | 0.00 | 61 | 1021.4 |
| 20260508200205 | 14 | 223 | 9.7 | 27.4 | 0.00 | 0.00 | 0.00 | 61 | 1021.4 |
| 20260508193704 | 14 | 254 | 8.0 | 20.9 | 0.00 | 0.00 | 0.00 | 61 | 1021.2 |
| 20260508193205 | 13 | 218 | 8.0 | 19.3 | 0.00 | 0.00 | 0.00 | 63 | 1021.3 |
| 20260508190704 | 13 | 210 | 9.7 | 24.1 | 0.00 | 0.00 | 0.00 | 66 | 1021.2 |
| 20260508190204 | 13 | 239 | 9.7 | 24.1 | 0.00 | 0.00 | 0.00 | 66 | 1021.2 |
| 20260508183204 | 13 | 247 | 4.8 | 19.3 | 0.00 | 0.00 | 0.00 | 68 | 1021.1 |
| 20260508180703 | 13 | 223 | 8.0 | 19.3 | 0.00 | 0.00 | 0.00 | 68 | 1020.7 |
| 20260508180203 | 12 | 181 | 8.0 | 22.5 | 0.00 | 0.00 | 0.00 | 68 | 1020.7 |
| 20260508173703 | 12 | 225 | 4.8 | 16.1 | 0.00 | 0.00 | 0.00 | 73 | 1020.6 |
| 20260508173204 | 12 | 228 | 6.4 | 16.1 | 0.00 | 0.00 | 0.00 | 73 | 1020.5 |
| 20260508170704 | 12 | 167 | 3.2 | 11.3 | 0.00 | 0.00 | 0.00 | 74 | 1020.0 |
| 20260508170204 | 12 | 171 | 4.8 | 19.3 | 0.00 | 0.00 | 0.00 | 74 | 1020.0 |
| 20260508163704 | 12 | 132 | 8.0 | 12.9 | 0.00 | 0.00 | 0.00 | 73 | 1019.8 |
| 20260508160704 | 12 | 173 | 4.8 | 9.7 | 0.00 | 0.00 | 0.00 | 75 | 1019.6 |
| 20260508160204 | 12 | 252 | 4.8 | 14.5 | 0.00 | 0.00 | 0.00 | 75 | 1019.6 |
| 20260508153704 | 11 | 171 | 6.4 | 11.3 | 0.00 | 0.00 | 0.00 | 76 | 1019.8 |
| 20260508150204 | 11 | 176 | 6.4 | 14.5 | 0.00 | 0.00 | 0.00 | 78 | 1019.8 |
| 20260508143704 | 10 | 167 | 6.4 | 19.3 | 0.00 | 0.00 | 0.00 | 81 | 1019.5 |
| 20260508143203 | 10 | 223 | 4.8 | 16.1 | 0.00 | 0.00 | 0.00 | 81 | 1019.4 |
| 20260508140204 | 10 | 171 | 4.8 | 12.9 | 0.00 | 0.00 | 0.00 | 82 | 1018.7 |
| 20260508133704 | 10 | 186 | 3.2 | 16.1 | 0.00 | 0.00 | 0.00 | 82 | 1018.4 |
| 20260508133204 | 11 | 166 | 3.2 | 12.9 | 0.00 | 0.00 | 0.00 | 82 | 1018.3 |
| 20260508130705 | 10 | 162 | 6.4 | 14.5 | 0.00 | 0.00 | 0.00 | 82 | 1017.9 |
| 20260508123703 | 10 | 138 | 1.6 | 4.8 | 0.00 | 0.00 | 0.00 | 84 | 1017.6 |
| 20260508123204 | 10 | 153 | 0.0 | 4.8 | 0.00 | 0.00 | 0.00 | 84 | 1017.6 |
| 20260508120704 | 10 | 136 | 3.2 | 11.3 | 0.00 | 0.00 | 0.00 | 84 | 1017.5 |
| 20260508120204 | 10 | 86 | 1.6 | 4.8 | 0.00 | 0.00 | 0.00 | 84 | 1017.5 |
| 20260508113205 | 11 | 128 | 3.2 | 4.8 | 0.00 | 0.00 | 0.00 | 85 | 1017.2 |
| 20260508110704 | 10 | 126 | 1.6 | 4.8 | 0.00 | 0.00 | 0.00 | 85 | 1017.0 |
| 20260508110204 | 10 | 96 | 1.6 | 4.8 | 0.00 | 0.00 | 0.00 | 84 | 1016.9 |
| 20260508103704 | 11 | 128 | 1.6 | 3.2 | 0.00 | 0.00 | 0.00 | 84 | 1016.7 |
| 20260508103204 | 11 | 94 | 1.6 | 4.8 | 0.00 | 0.00 | 0.00 | 84 | 1016.7 |
| 20260508100704 | 11 | 98 | 3.2 | 4.8 | 0.00 | 0.00 | 0.00 | 83 | 1016.4 |
| 20260508100204 | 11 | 106 | 0.0 | 4.8 | 0.00 | 0.00 | 0.00 | 83 | 1016.4 |
| 20260508093703 | 11 | 144 | 0.0 | 3.2 | 0.00 | 0.00 | 0.00 | 82 | 1016.4 |
| 20260508093204 | 11 | 144 | 0.0 | 4.8 | 0.00 | 0.00 | 0.00 | 82 | 1016.4 |
| 20260508083703 | 12 | 125 | 1.6 | 4.8 | 0.00 | 0.00 | 0.00 | 81 | 1016.3 |
| 20260508083203 | 11 | 90 | 1.6 | 4.8 | 0.00 | 0.00 | 0.00 | 82 | 1016.3 |
| 20260508080204 | 12 | 171 | 0.0 | 0.0 | 0.00 | 0.00 | 0.00 | 81 | 1016.3 |
| 20260508073703 | 12 | 171 | 0.0 | 0.0 | 0.00 | 0.00 | 0.00 | 79 | 1016.4 |
| 20260508073204 | 12 | 171 | 0.0 | 3.2 | 0.00 | 0.00 | 0.00 | 79 | 1016.4 |
| 20260508070703 | 12 | 110 | 1.6 | 4.8 | 0.00 | 0.00 | 0.00 | 78 | 1016.2 |
| 20260508070204 | 13 | 121 | 0.0 | 8.0 | 0.00 | 0.00 | 0.00 | 78 | 1016.3 |
| 20260508063704 | 13 | 105 | 1.6 | 3.2 | 0.00 | 0.00 | 0.00 | 77 | 1016.4 |
| 20260508063204 | 13 | 124 | 1.6 | 9.7 | 0.00 | 0.00 | 0.00 | 77 | 1016.3 |
| 20260508060704 | 13 | 106 | 3.2 | 4.8 | 0.00 | 0.00 | 0.00 | 75 | 1016.4 |
| 20260508060204 | 13 | 90 | 3.2 | 4.8 | 0.00 | 0.00 | 0.00 | 75 | 1016.4 |
| 20260508053704 | 13 | 51 | 1.6 | 3.2 | 0.00 | 0.00 | 0.00 | 74 | 1016.4 |
| 20260508053204 | 13 | 46 | 1.6 | 3.2 | 0.00 | 0.00 | 0.00 | 74 | 1016.5 |
| 20260508050704 | 13 | 46 | 0.0 | 0.0 | 0.00 | 0.00 | 0.00 | 72 | 1016.5 |
| 20260508050204 | 14 | 46 | 0.0 | 3.2 | 0.00 | 0.00 | 0.00 | 71 | 1016.5 |
| 20260508043704 | 14 | 46 | 1.6 | 3.2 | 0.00 | 0.00 | 0.00 | 69 | 1016.7 |
| 20260508040704 | 15 | 46 | 0.0 | 0.0 | 0.00 | 0.00 | 0.00 | 67 | 1016.8 |
| 20260508040204 | 15 | 46 | 0.0 | 3.2 | 0.00 | 0.00 | 0.00 | 67 | 1016.7 |
| 20260508033703 | 16 | 17 | 0.0 | 0.0 | 0.00 | 0.00 | 0.00 | 63 | 1016.5 |
| 20260508033204 | 16 | 0 | 0.0 | 3.2 | 0.00 | 0.00 | 0.00 | 62 | 1016.6 |
| 20260508030704 | 17 | 30 | 0.0 | 3.2 | 0.00 | 0.00 | 0.00 | 59 | 1016.6 |
| 20260508030204 | 17 | 30 | 0.0 | 4.8 | 0.00 | 0.00 | 0.00 | 58 | 1016.5 |
| 20260508023704 | 18 | 351 | 1.6 | 3.2 | 0.00 | 0.00 | 0.00 | 55 | 1016.8 |
| 20260508023204 | 18 | 299 | 3.2 | 4.8 | 0.00 | 0.00 | 0.00 | 56 | 1016.7 |
| 20260508020704 | 18 | 316 | 0.0 | 3.2 | 0.00 | 0.00 | 0.00 | 54 | 1016.9 |
| 20260508020203 | 18 | 300 | 1.6 | 4.8 | 0.00 | 0.00 | 0.00 | 55 | 1017.0 |
| 20260508013704 | 19 | 351 | 1.6 | 8.0 | 0.00 | 0.00 | 0.00 | 54 | 1017.0 |